Starlink 35874

operational
NORAD ID: 66962 Int'l Des: 2025-288 Owner: SPXS Country: US Constellation: starlink
LEOCIRCULAR

关于 Starlink 35874

正在加载描述...

实时位置

正在加载3D地球...

即将过境

高度历史

Altitude vs Time

uPlot chart will show altitude changes over time

两行轨道根数

1 66962C 25288D 25346.09909722 -.01031100 00000+0 -19138-2 0 3469
2 66962 43.0035 171.8504 0001878 271.5360 123.7377 16.01112742 16
Epoch: Dec 12, 2025 • Age: 58 hours

当前状态

高度 285.2 km
速度 7.74 km/s
星下点 30.02°N, 36.47°W
发射日期 Dec 8, 2025
运行时间 5 days
类型 internet

技术详情

分类 Payload
质量 575.00 kg
干质量 530.00 kg
总质量 575.00 kg
长度 0.30 m
直径 4.10 m
跨度 29.00 m
形状 Box + pan
制造商 SPXS
平台类型 Starlink V2MO
阶段状态 In Orbit
所有者/国家 SPXS/US

大型星座

Loading constellations...